Time,TemperatureF,DewpointF,PressureIn,WindDirection,WindDirectionDegrees,WindSpeedMPH,WindSpeedGustMPH,Humidity,HourlyPrecipIn,Conditions,Clouds,dailyrainin,SoftwareType,DateUTC
2013-01-19 00:22:00,49.0,28.0,30.16,North,0,0.0,3.0,44,0.00,,,-99.99,,2013-01-19 08:22:00,
2013-01-19 00:32:00,49.0,28.0,30.16,North,0,0.0,3.0,44,0.00,,,-99.99,,2013-01-19 08:32:00,
2013-01-19 00:42:00,49.0,28.0,30.16,North,0,0.0,3.0,44,0.00,,,-99.99,,2013-01-19 08:42:00,
2013-01-19 01:22:00,49.0,27.0,30.16,SE,130,1.0,2.0,42,0.00,,,-99.99,,2013-01-19 09:22:00,
2013-01-19 01:32:00,49.0,27.0,30.16,SE,130,1.0,2.0,42,0.00,,,-99.99,,2013-01-19 09:32:00,
2013-01-19 01:42:00,49.0,27.0,30.16,SE,130,1.0,2.0,42,0.00,,,-99.99,,2013-01-19 09:42:00,
2013-01-19 02:22:00,46.0,27.0,30.17,North,0,0.0,3.0,48,0.00,,,-99.99,,2013-01-19 10:22:00,
2013-01-19 02:32:00,46.0,27.0,30.17,North,0,0.0,3.0,48,0.00,,,-99.99,,2013-01-19 10:32:00,
2013-01-19 02:42:00,46.0,27.0,30.17,North,0,0.0,3.0,48,0.00,,,-99.99,,2013-01-19 10:42:00,
2013-01-19 04:48:00,43.0,26.0,30.17,North,0,0.0,1.0,51,0.00,,,-99.99,,2013-01-19 12:48:00,
2013-01-19 05:22:00,44.0,26.0,30.17,North,0,0.0,3.0,48,0.00,,,-99.99,,2013-01-19 13:22:00,
2013-01-19 05:33:00,44.0,26.0,30.17,North,0,0.0,3.0,48,0.00,,,-99.99,,2013-01-19 13:33:00,
2013-01-19 05:42:00,44.0,26.0,30.17,North,0,0.0,3.0,48,0.00,,,-99.99,,2013-01-19 13:42:00,
2013-01-19 06:23:00,43.0,26.0,30.18,North,0,0.0,3.0,50,0.00,,,-99.99,,2013-01-19 14:23:00,
2013-01-19 06:33:00,43.0,26.0,30.18,North,0,0.0,3.0,50,0.00,,,-99.99,,2013-01-19 14:33:00,
2013-01-19 06:42:00,43.0,26.0,30.18,North,0,0.0,3.0,50,0.00,,,-99.99,,2013-01-19 14:42:00,
2013-01-19 07:22:00,43.0,25.0,30.20,East,90,1.0,3.0,49,0.00,,,-99.99,,2013-01-19 15:22:00,
2013-01-19 07:33:00,43.0,25.0,30.20,East,90,1.0,3.0,49,0.00,,,-99.99,,2013-01-19 15:33:00,
2013-01-19 07:43:00,43.0,25.0,30.20,East,90,1.0,3.0,49,0.00,,,-99.99,,2013-01-19 15:43:00,
2013-01-19 08:23:00,46.0,26.0,30.22,East,100,1.0,4.0,46,0.00,,,-99.99,,2013-01-19 16:23:00,
2013-01-19 08:33:00,46.0,26.0,30.22,East,100,1.0,4.0,46,0.00,,,-99.99,,2013-01-19 16:33:00,
2013-01-19 09:27:00,52.0,27.0,30.23,North,0,0.0,4.0,37,0.00,,,-99.99,,2013-01-19 17:27:00,
2013-01-19 10:25:00,62.0,25.0,30.23,North,0,0.0,5.0,24,0.00,,,-99.99,,2013-01-19 18:25:00,
2013-01-19 10:34:00,62.0,25.0,30.23,North,0,0.0,5.0,24,0.00,,,-99.99,,2013-01-19 18:34:00,
2013-01-19 10:44:00,62.0,25.0,30.23,North,0,0.0,5.0,24,0.00,,,-99.99,,2013-01-19 18:44:00,
2013-01-19 11:28:00,68.0,22.0,30.21,North,0,0.0,3.0,17,0.00,,,-99.99,,2013-01-19 19:28:00,
2013-01-19 11:38:00,68.0,22.0,30.21,North,0,0.0,3.0,17,0.00,,,-99.99,,2013-01-19 19:38:00,
2013-01-19 11:44:00,68.0,22.0,30.21,North,0,0.0,3.0,17,0.00,,,-99.99,,2013-01-19 19:44:00,
2013-01-19 12:24:00,71.0,14.0,30.17,SE,140,1.0,3.0,11,0.00,,,-99.99,,2013-01-19 20:24:00,
2013-01-19 12:36:00,71.0,14.0,30.17,SE,140,1.0,3.0,11,0.00,,,-99.99,,2013-01-19 20:36:00,
2013-01-19 13:25:00,75.0,17.0,30.14,WSW,240,3.0,7.0,11,0.00,,,-99.99,,2013-01-19 21:25:00,
2013-01-19 13:39:00,75.0,17.0,30.14,WSW,240,3.0,7.0,11,0.00,,,-99.99,,2013-01-19 21:39:00,
2013-01-19 13:47:00,75.0,17.0,30.14,WSW,240,3.0,7.0,11,0.00,,,-99.99,,2013-01-19 21:47:00,
2013-01-19 14:25:00,76.0,16.0,30.13,SSW,200,3.0,9.0,10,0.00,,,-99.99,,2013-01-19 22:25:00,
2013-01-19 14:34:00,76.0,16.0,30.13,SSW,200,3.0,9.0,10,0.00,,,-99.99,,2013-01-19 22:34:00,
2013-01-19 14:45:00,76.0,16.0,30.13,SSW,200,3.0,9.0,10,0.00,,,-99.99,,2013-01-19 22:45:00,
2013-01-19 15:25:00,75.0,15.0,30.11,SW,220,4.0,14.0,10,0.00,,,-99.99,,2013-01-19 23:25:00,
2013-01-19 15:34:00,75.0,15.0,30.11,SW,220,4.0,14.0,10,0.00,,,-99.99,,2013-01-19 23:34:00,
2013-01-19 15:44:00,75.0,15.0,30.11,SW,220,4.0,14.0,10,0.00,,,-99.99,,2013-01-19 23:44:00,
2013-01-19 16:24:00,73.0,13.0,30.11,West,280,6.0,16.0,10,0.00,,,-99.99,,2013-01-20 00:24:00,
2013-01-19 16:34:00,73.0,13.0,30.11,West,280,6.0,16.0,10,0.00,,,-99.99,,2013-01-20 00:34:00,
2013-01-19 16:45:00,73.0,13.0,30.11,West,280,6.0,16.0,10,0.00,,,-99.99,,2013-01-20 00:45:00,
2013-01-19 17:24:00,72.0,15.0,30.11,North,0,0.0,14.0,11,0.00,,,-99.99,,2013-01-20 01:24:00,
2013-01-19 17:35:00,72.0,15.0,30.11,North,0,0.0,14.0,11,0.00,,,-99.99,,2013-01-20 01:35:00,
2013-01-19 17:45:00,72.0,15.0,30.11,North,0,0.0,14.0,11,0.00,,,-99.99,,2013-01-20 01:45:00,
2013-01-19 18:25:00,68.0,15.0,30.13,East,90,3.0,9.0,13,0.00,,,-99.99,,2013-01-20 02:25:00,
2013-01-19 18:34:00,68.0,15.0,30.13,East,90,3.0,9.0,13,0.00,,,-99.99,,2013-01-20 02:34:00,
2013-01-19 18:43:00,68.0,15.0,30.13,East,90,3.0,9.0,13,0.00,,,-99.99,,2013-01-20 02:43:00,
2013-01-19 19:24:00,65.0,13.0,30.15,NW,310,6.0,9.0,13,0.00,,,-99.99,,2013-01-20 03:24:00,
2013-01-19 19:36:00,65.0,13.0,30.15,NW,310,6.0,9.0,13,0.00,,,-99.99,,2013-01-20 03:36:00,
2013-01-19 20:24:00,60.0,20.0,30.16,North,0,0.0,4.0,21,0.00,,,-99.99,,2013-01-20 04:24:00,
2013-01-19 20:34:00,60.0,20.0,30.16,North,0,0.0,4.0,21,0.00,,,-99.99,,2013-01-20 04:34:00,
2013-01-19 20:44:00,60.0,20.0,30.16,North,0,0.0,4.0,21,0.00,,,-99.99,,2013-01-20 04:44:00,
2013-01-19 21:22:00,56.0,27.0,30.17,North,0,0.0,4.0,32,0.00,,,-99.99,,2013-01-20 05:22:00,
2013-01-19 21:32:00,56.0,27.0,30.17,North,0,0.0,4.0,32,0.00,,,-99.99,,2013-01-20 05:32:00,
2013-01-19 21:42:00,56.0,27.0,30.17,North,0,0.0,4.0,32,0.00,,,-99.99,,2013-01-20 05:42:00,
2013-01-19 22:22:00,54.0,26.0,30.18,North,0,0.0,4.0,34,0.00,,,-99.99,,2013-01-20 06:22:00,
2013-01-19 22:33:00,54.0,26.0,30.18,North,0,0.0,4.0,34,0.00,,,-99.99,,2013-01-20 06:33:00,
2013-01-19 22:42:00,54.0,26.0,30.18,North,0,0.0,4.0,34,0.00,,,-99.99,,2013-01-20 06:42:00,
2013-01-19 23:22:00,51.0,26.0,30.19,North,0,0.0,3.0,38,0.00,,,-99.99,,2013-01-20 07:22:00,
2013-01-19 23:32:00,51.0,26.0,30.19,North,0,0.0,3.0,38,0.00,,,-99.99,,2013-01-20 07:32:00,
2013-01-19 23:42:00,51.0,26.0,30.19,North,0,0.0,3.0,38,0.00,,,-99.99,,2013-01-20 07:42:00,